This demonstration page uses our WeatherBlox Daily Observations layout. Learn more.

Left ArrowRight Arrow

Hourly Observations for May 9, 2021

Temp ( °F °C ) Dew Point ( °F °C ) Humidity (%) Winds ( mph kmh ) Pressure ( in mb ) Visibility ( mi km ) Precip ( " mm )
12:15 am 00:15 Cloudy 46 8 46 8 100 100 N N/A 30.05 1018 10 16.0934 N/A
12:35 am 00:35 Cloudy 46 8 46 8 100 100 NE 13 20 30.06 1018 10 16.0934 N/A
12:55 am 00:55 Cloudy 46 8 46 8 100 100 N N/A 30.06 1018 10 16.0934 N/A
1:15 am 01:15 Cloudy 45 7 45 7 100 100 N N/A 30.05 1018 10 16.0934 N/A
1:35 am 01:35 Cloudy 45 7 45 7 100 100 N N/A 30.05 1018 7 11.26538 N/A
1:55 am 01:55 Cloudy 45 7 45 7 100 100 ENE 12 19 30.03 1017 5 8.0467 N/A
2:15 am 02:15 Cloudy 45 7 45 7 100 100 NE 6 9 30.02 1017 10 16.0934 N/A
2:35 am 02:35 Cloudy 45 7 45 7 100 100 NE 10 17 30.02 1017 10 16.0934 N/A
2:55 am 02:55 Cloudy 45 7 45 7 100 100 ENE 13 20 29.98 1015 10 16.0934 N/A
3:15 am 03:15 Cloudy 45 7 45 7 100 100 ENE 12 19 29.97 1015 10 16.0934 N/A
3:35 am 03:35 Cloudy 45 7 45 7 100 100 E 15 24 29.94 1014 10 16.0934 N/A
3:55 am 03:55 Cloudy 45 7 45 7 100 100 E 13 20 29.92 1013 10 16.0934 N/A
4:15 am 04:15 Cloudy 45 7 45 7 100 100 E 17 28 29.91 1013 10 16.0934 N/A
4:35 am 04:35 Cloudy 45 7 45 7 100 100 E 17 28 29.9 1013 7 11.26538 N/A
4:55 am 04:55 Cloudy 45 7 45 7 100 100 E 16 26 29.87 1012 7 11.26538 N/A
5:15 am 05:15 Cloudy 45 7 45 7 100 100 E 14 22 29.88 1012 10 16.0934 N/A
5:35 am 05:35 Cloudy 43 6 43 6 100 100 E 16 26 29.85 1011 5 8.0467 N/A
5:55 am 05:55 Cloudy 43 6 43 6 100 100 E 16 26 29.84 1011 7 11.26538 N/A
6:15 am 06:15 Cloudy 45 7 45 7 100 100 ENE 17 28 29.82 1010 10 16.0934 N/A
6:35 am 06:35 Cloudy 45 7 45 7 100 100 ENE 17 28 29.84 1011 10 16.0934 N/A
6:55 am 06:55 Cloudy 45 7 45 7 100 100 E 20 31 29.82 1010 10 16.0934 N/A
7:15 am 07:15 Cloudy 45 7 45 7 100 100 ENE 15 24 29.83 1010 10 16.0934 N/A
7:35 am 07:35 Cloudy 45 7 45 7 100 100 ENE 15 24 29.82 1010 10 16.0934 N/A
7:55 am 07:55 Cloudy 45 7 45 7 100 100 E 18 30 29.78 1008 7 11.26538 N/A
8:15 am 08:15 Cloudy 45 7 45 7 100 100 ENE 18 30 29.75 1007 10 16.0934 N/A
8:35 am 08:35 Cloudy 45 7 45 7 100 100 E 18 30 29.73 1007 10 16.0934 N/A
8:55 am 08:55 Cloudy 45 7 45 7 100 100 E 16 26 29.74 1007 10 16.0934 N/A
9:15 am 09:15 Cloudy 45 7 45 7 100 100 NNE 13 20 29.8 1009 2.5 4.02335 N/A
9:35 am 09:35 Cloudy 45 7 45 7 100 100 ENE 15 24 29.76 1008 2 3.21868 N/A
9:55 am 09:55 Cloudy 43 6 43 6 100 100 ENE 15 24 29.74 1007 2.5 4.02335 N/A
10:15 am 10:15 Cloudy 43 6 43 6 100 100 ENE 15 24 29.71 1006 3 4.82802 N/A
10:35 am 10:35 Cloudy 43 6 43 6 100 100 E 14 22 29.7 1006 4 6.43736 N/A
10:55 am 10:55 Cloudy 43 6 43 6 100 100 E 18 30 29.69 1006 1.5 2.41401 N/A
11:15 am 11:15 Cloudy 43 6 43 6 100 100 ENE 16 26 29.66 1005 2.5 4.02335 N/A
11:35 am 11:35 Cloudy 43 6 43 6 100 100 E 16 26 29.64 1004 7 11.26538 N/A
11:55 am 11:55 Cloudy 45 7 45 7 100 100 ENE 9 15 29.64 1004 10 16.0934 N/A
12:15 pm 12:15 Cloudy 45 7 45 7 100 100 NE 10 17 29.66 1004 3 4.82802 N/A
12:35 pm 12:35 Cloudy 45 7 45 7 100 100 NE 12 19 29.64 1004 2.5 4.02335 N/A
12:55 pm 12:55 Cloudy 45 7 45 7 100 100 NE 12 19 29.63 1003 2.5 4.02335 N/A
1:15 pm 13:15 Cloudy 45 7 45 7 100 100 NNE 15 24 29.64 1004 1 1.60934 N/A
1:35 pm 13:35 Cloudy 45 7 45 7 100 100 N 15 24 29.67 1005 1.25 2.011675 N/A
1:55 pm 13:55 Cloudy 45 7 45 7 100 100 NNE 20 31 29.67 1005 3 4.82802 N/A
2:15 pm 14:15 Cloudy 45 7 45 7 100 100 N 20 31 29.69 1005 5 8.0467 N/A
2:35 pm 14:35 Cloudy 43 6 43 6 100 100 N 16 26 29.71 1006 4 6.43736 N/A
2:55 pm 14:55 Cloudy 43 6 43 6 100 100 N 20 31 29.72 1007 4 6.43736 N/A
3:15 pm 15:15 Cloudy 43 6 43 6 100 100 N 24 39 29.75 1008 7 11.26538 N/A
3:35 pm 15:35 Cloudy 43 6 43 6 100 100 N 17 28 29.77 1008 10 16.0934 N/A
3:55 pm 15:55 Cloudy 43 6 43 6 100 100 N 18 30 29.79 1009 10 16.0934 N/A
5:55 pm 17:55 Cloudy 43 6 43 6 100 100 N 21 33 29.88 1012 10 16.0934 N/A
6:15 pm 18:15 Cloudy 43 6 43 6 100 100 N 20 31 29.91 1013 10 16.0934 N/A
6:35 pm 18:35 Cloudy 43 6 43 6 100 100 N 20 31 29.91 1013 10 16.0934 N/A
6:55 pm 18:55 Cloudy 43 6 43 6 100 100 N 14 22 29.95 1014 10 16.0934 N/A
7:15 pm 19:15 Cloudy 43 6 43 6 100 100 N 14 22 29.98 1015 10 16.0934 N/A
7:35 pm 19:35 Cloudy 43 6 43 6 100 100 N 15 24 29.98 1015 10 16.0934 N/A
7:55 pm 19:55 Cloudy 43 6 43 6 100 100 N 14 22 29.98 1015 10 16.0934 N/A
8:15 pm 20:15 Cloudy 43 6 43 6 100 100 N 14 22 29.98 1015 10 16.0934 N/A
8:35 pm 20:35 Cloudy 43 6 43 6 100 100 N 9 15 29.99 1016 10 16.0934 N/A
8:55 pm 20:55 Cloudy 43 6 43 6 100 100 N 6 9 30.01 1016 10 16.0934 N/A
9:15 pm 21:15 Cloudy 43 6 43 6 100 100 NNE 8 13 30.02 1017 10 16.0934 N/A
9:35 pm 21:35 Cloudy 43 6 43 6 100 100 N N/A 30.04 1017 10 16.0934 N/A
9:55 pm 21:55 Cloudy 41 5 41 5 100 100 N N/A 30.05 1018 10 16.0934 N/A
10:15 pm 22:15 Mostly Cloudy 41 5 41 5 100 100 N N/A 30.06 1018 10 16.0934 N/A
10:35 pm 22:35 Partly Cloudy 39 4 39 4 100 100 N N/A 30.06 1018 10 16.0934 N/A
10:55 pm 22:55 Clear 37 3 37 3 100 100 N N/A 30.06 1018 10 16.0934 N/A
11:15 pm 23:15 Clear 37 3 37 3 100 100 N N/A 30.07 1018 10 16.0934 N/A
11:35 pm 23:35 Clear 37 3 37 3 100 100 N N/A 30.07 1018 10 16.0934 N/A
11:55 pm 23:55 Clear 36 2 36 2 100 100 N N/A 30.08 1019 10 16.0934 N/A

Powered by AerisWeather